Location: Croazou
(48.6532°N, 4.3561°W)
Time: 06:44:34
(UTC+00:00)

Daily predictions for brighter satellites

Satellite Brightness Start Highest point End
(mag) Time Altitude Azimuth Time Altitude Azimuth Time Altitude Azimuth
Lacrosse 5 3.8 21:00:02 10° WNW 21:03:40 20° SW 21:07:18 10° S
Meteor 1-16 Rocket 4.2 21:00:29 10° N 21:06:00 79° ENE 21:11:19 10° SSE
Resurs 01 Rocket 2.1 21:02:01 10° S 21:06:22 62° W 21:10:46 10° NNW
Ariane Rocket 4.3 21:05:16 10° SSW 21:10:02 40° W 21:14:51 10° NNW
Cosmos 1340 3.8 21:08:12 10° SSE 21:11:25 27° E 21:14:38 10° NNE
USA 267 4.5 21:07:42 10° ENE 21:13:47 43° N 21:19:54 10° WNW
Landsat 7 4.2 21:09:15 10° S 21:13:58 65° WSW 21:18:44 10° NNW
Aureole 1 Rocket 4.3 21:08:08 10° NNW 21:14:08 87° WSW 21:21:47 10° SSE
Cosmos 2322 4.2 21:09:08 10° S 21:14:18 38° ESE 21:19:30 10° NE
Cosmos 2278 Rocket 3.7 21:10:01 10° NNW 21:14:48 27° NE 21:19:37 10° ESE
COSMOS 2428 3.7 21:11:19 10° SSE 21:16:08 28° ESE 21:20:58 10° NE
SPOT 3 Rocket 4.0 21:11:08 10° S 21:16:15 65° WSW 21:21:27 10° NNW
Cosmos 1844 Rocket 2.9 21:10:36 10° NNW 21:16:17 75° WSW 21:21:56 10° SSE
Cosmos 2237 4.4 21:14:46 10° SSW 21:20:29 82° WNW 21:26:13 10° NNE
Cosmos 1867 4.3 21:17:54 10° NNW 21:23:14 47° NE 21:28:29 10° ESE
Cosmos 968 Rocket 4.1 21:23:51 10° NNW 21:28:47 45° ENE 21:33:29 11° SE
Cosmos 1908 3.6 21:27:31 10° NNW 21:31:22 64° W 21:35:10 10° S
JB-3 4.4 21:27:48 10° NNE 21:31:47 66° ESE 21:35:49 10° S
Cosmos 1110 Rocket 4.1 21:28:57 10° SSW 21:34:08 86° WNW 21:39:25 10° NNE
Cosmos 1626 2.0 21:30:37 10° S 21:34:17 76° E 21:37:59 10° NNE
Cosmos 1544 Rocket 3.6 21:30:16 10° N 21:34:46 89° WSW 21:39:12 10° S
FALCON 9 DEB 3.6 21:32:11 10° WSW 21:35:36 65° NNW 21:39:00 10° ENE
Cosmos 2061 Rocket 4.1 21:30:04 10° N 21:36:32 71° E 21:42:50 10° SSE
Cosmos 2123 Rocket 4.2 21:30:57 10° S 21:37:06 60° E 21:43:20 10° NNE
Meteor 2-10 Rocket 4.4 21:33:55 10° N 21:38:31 34° ENE 21:42:36 12° SE
Cosmos 1455 Rocket 3.9 21:34:46 10° NNW 21:39:06 50° W 21:43:24 10° SSW
Cosmos 2233 Rocket 4.5 21:34:17 10° N 21:40:14 47° ENE 21:45:35 13° SE
ARIANE 5 R/B 2.7 21:38:34 10° SSE 21:43:01 83° WSW 21:47:34 10° NNW
Cosmos 1346 Rocket 4.1 21:47:03 14° SE 21:49:28 24° E 21:52:45 10° NE
Cosmos 405 2.9 21:47:18 10° NNW 21:50:46 90° W 21:53:33 15° S
ATLAS CENTAUR R/B 2.0 21:46:31 10° NW 21:50:47 55° WSW 21:54:30 14° SSE
Cosmos 2333 4.2 21:47:39 10° SSW 21:53:24 86° ESE 21:59:10 10° NNE
ATLAS 3B R/B 2.6 21:49:27 10° SSW 21:55:58 74° SE 22:02:45 10° NE
SL-4 R/B 3.0 21:54:37 10° SSW 21:58:01 24° SE 22:01:14 10° E
FALCON 9 DEB 2.8 21:56:47 10° SW 21:59:53 65° SSE 22:03:00 10° ENE
Cosmos 2016 Rocket 4.2 21:58:56 10° NNW 22:05:01 70° W 22:11:00 11° S
CZ-4B DEB 4.2 22:03:26 20° SSE 22:05:27 70° ENE 22:08:38 10° N
Cosmos 2219 Rocket 2.2 22:00:16 10° SSW 22:05:57 78° ESE 22:11:39 10° NNE
Cosmos 1025 Rocket 3.9 22:02:29 10° SSW 22:06:45 51° WNW 22:11:01 10° N
Meteor 2-5 Rocket 3.7 22:01:17 10° S 22:06:48 74° E 22:12:27 10° NNE
Cosmos 1607 4.4 22:00:50 10° NW 22:07:11 57° NE 22:12:53 13° ESE
Lacrosse 5 rocket 1.8 22:03:42 10° WSW 22:07:17 54° NNW 22:10:50 10° NE
Cosmos 2333 Rocket 2.3 22:01:50 10° SSW 22:07:35 89° WNW 22:13:21 10° NNE
ERS-1 Rocket 3.2 22:04:07 13° S 22:08:39 66° WSW 22:13:41 10° NNW
Geosat 4.2 22:04:47 15° SSE 22:08:51 64° WSW 22:13:52 10° NW
Cosmos 1536 Rocket 3.6 22:05:25 10° S 22:09:53 85° W 22:14:22 10° N
Cosmos 2228 3.4 22:06:51 10° N 22:11:11 53° ENE 22:14:06 19° SSE
Spot 2 Rocket 4.5 22:08:59 10° SSW 22:13:45 42° W 22:18:35 10° NNW
FALCON 9 DEB 2.9 22:12:20 10° WSW 22:15:26 78° NNW 22:18:32 10° ENE
Cosmos 1725 Rocket 4.3 22:13:21 10° NNW 22:19:28 64° W 22:25:09 12° S
SL-24 R/B 4.3 22:16:04 10° N 22:20:56 81° E 22:24:49 16° S
USA 215 4.0 22:15:30 10° ENE 22:21:02 28° SE 22:25:28 14° S
SL-14 R/B 4.1 22:17:35 10° SSW 22:21:30 50° WNW 22:25:26 10° N
FALCON 9 DEB 2.9 22:20:21 10° WSW 22:23:28 83° NNW 22:26:36 10° ENE
Terra 2.1 22:20:12 16° S 22:23:55 65° WSW 22:28:40 10° NNW
SL-16 R/B 4.0 22:23:55 12° ESE 22:25:42 14° E 22:28:21 10° ENE
FALCON 9 DEB 3.1 22:22:55 10° WSW 22:26:01 70° NNW 22:29:07 10° ENE
Cosmos 2237 Rocket 2.8 22:23:45 19° SSE 22:27:13 37° ESE 22:32:21 10° NE
Cosmos 1455 3.1 22:24:29 10° N 22:28:04 37° ENE 22:29:59 22° SE
Cosmos 1184 Rocket 4.3 22:29:49 20° ESE 22:30:32 22° E 22:33:06 10° NE
Cosmos 2360 Rocket 3.9 22:25:38 10° WSW 22:30:44 34° NW 22:35:53 10° NNE
SPOT 5 3.9 22:27:29 12° SSW 22:31:51 41° W 22:36:27 10° NNW
H-2A R/B 3.4 22:29:04 10° NNE 22:33:11 89° WNW 22:36:19 17° SSW
Cosmos 1503 Rocket 4.2 22:29:00 10° NNW 22:34:24 70° ENE 22:37:58 21° SE
Cosmos 1300 4.1 22:35:00 10° NNW 22:38:26 32° W 22:41:15 14° SSW
Meteor 1-24 Rocket 3.8 22:33:33 12° SSW 22:38:35 77° WNW 22:44:09 10° N
GEOS 3 Rocket 4.2 22:38:08 13° ESE 22:42:46 57° NE 22:48:00 10° NW
ATLAS CENTAUR R/B 3.7 22:40:44 22° SSE 22:43:21 33° ESE 22:52:40 10° NE
Okean 1-7 Rocket 4.4 22:54:15 25° SE 22:56:09 38° E 23:00:16 10° NNE
USA 267 3.8 22:49:49 10° E 22:56:13 60° NNE 23:02:39 10° NW
Cosmos 389 Rocket 3.1 22:53:13 10° NNW 22:56:31 46° W 22:58:04 26° SSW
GENESIS II 4.1 22:54:50 16° SSW 22:57:56 81° SE 23:01:52 10° NE
BREEZE-M DEB (TANK) 2.3 22:55:07 10° WSW 22:58:01 89° SSE 23:05:28 10° ENE
Cosmos 2278 Rocket 2.3 22:53:45 10° NNW 22:59:23 66° WSW 23:02:45 25° S
COSMOS 2428 3.4 22:54:27 10° SW 23:00:06 55° NW 23:05:46 10° NNE
Cosmos 1726 Rocket 3.6 22:57:09 10° NNW 23:01:37 74° W 23:03:59 27° S
Cosmos 2058 Rocket 3.1 22:57:48 10° N 23:02:15 71° E 23:04:24 29° SSE
Centaur D AC-29 4.4 22:59:32 10° WSW 23:05:41 13° SW 23:09:10 10° SSW
Cosmos 2034 Rocket 4.3 23:00:09 10° N 23:06:14 55° ENE 23:10:01 23° SE
Cosmos 1867 4.4 23:01:43 10° NW 23:06:45 38° WSW 23:09:33 22° SSW
NOSS 0 Rocket 3.9 23:01:54 10° SSW 23:08:02 89° WNW 23:14:20 10° NNE
SJ 16-02 2.6 23:10:49 10° N 23:14:48 33° ENE 23:17:27 18° ESE
Cosmos 1606 Rocket 4.5 23:12:59 10° NNW 23:17:12 41° W 23:19:39 21° SSW
Meteor 1-21 Rocket 4.3 23:14:30 26° S 23:17:44 69° E 23:23:28 10° NNE
Cosmos 1777 Rocket 4.1 23:14:38 10° NNW 23:19:57 72° ENE 23:22:56 26° SE
Spot 4 3.8 23:20:17 30° S 23:22:42 81° WSW 23:27:30 10° NNW
Cosmos 1892 Rocket 3.8 23:21:07 25° SSW 23:23:38 68° W 23:28:06 10° N
Cosmos 1943 Rocket 2.9 23:19:31 10° NNW 23:24:51 47° NE 23:28:52 17° ESE
Meteor 1-4 Rocket 2.9 23:22:13 10° N 23:25:36 50° ENE 23:26:36 36° SE
Cosmos 1346 Rocket 4.4 23:22:31 12° SW 23:25:41 31° WNW 23:29:20 10° N
Cosmos 1441 Rocket 3.1 23:29:44 38° S 23:31:07 85° ESE 23:34:57 10° NNE
FALCON 9 DEB 4.3 23:32:44 10° W 23:35:44 40° N 23:38:43 10° ENE
ALOS 2 2.6 23:35:17 34° SSE 23:37:11 84° ENE 23:41:36 10° NNW
SL-4 R/B 1.7 23:33:15 10° WSW 23:37:18 88° SSE 23:41:03 10° ENE
Tsikada Rocket 4.2 23:34:13 27° SSE 23:37:33 56° E 23:43:34 10° NNE
Cosmos 1980 4.0 23:33:01 13° SW 23:38:09 65° WNW 23:43:50 10° NNE
Cosmos 1703 3.5 23:44:02 33° SSW 23:45:38 66° W 23:49:35 10° N
Lacrosse 5 rocket 3.7 23:44:03 10° WNW 23:46:58 23° N 23:49:53 10° NE
ATLAS 3B R/B 4.2 23:41:09 10° W 23:47:14 37° NNW 23:53:33 10° NE
NOSS 3-1 (C) 3.6 23:46:44 30° S 23:48:55 45° ESE 23:54:47 10° NE
Cosmos 2219 Rocket 4.4 23:46:00 10° W 23:50:33 24° NW 23:55:07 10° N
Cosmos 724 4.3 23:44:44 10° NW 23:50:55 76° WSW 23:54:20 27° SSE
Cosmos 1626 Rocket 3.5 23:49:24 36° S 23:51:13 84° E 23:55:41 10° N
Elektron 1 3.6 23:50:05 10° NW 23:53:11 88° SW 23:53:44 55° SE
OPS 6432 4.4 23:50:57 10° NW 23:53:56 71° NE 23:54:58 40° ESE
